GW3275 Weather Reports


Display with metric or nautical units.
time (UTC)temp
F
wind
direction
speed
MPH
gust
MPH
rain 1hr
in
rain 24hr
in
rain mn
in
humidity
%
barometer
mb
20260505124731 52 6 19.0 24.0 0.00 0.00 0.00 54 1008.4
20260505124228 52 28 28.0 36.0 0.00 0.00 0.00 54 1008.5
20260505123723 52 1 19.0 22.0 0.00 0.00 0.00 54 1008.7
20260505123220 52 4 23.0 27.0 0.00 0.00 0.00 54 1008.7
20260505122717 52 7 22.0 27.0 0.00 0.00 0.00 55 1008.6
20260505122214 52 3 20.0 22.0 0.00 0.00 0.00 55 1008.5
20260505121710 52 10 15.0 19.0 0.00 0.00 0.00 55 1008.2
20260505121207 53 9 19.0 24.0 0.00 0.00 0.00 55 1008.0
20260505120704 53 9 19.0 22.0 0.00 0.00 0.00 54 1008.3
20260505120159 54 12 17.0 19.0 0.00 0.00 0.00 54 1008.3
20260505115653 54 355 22.0 26.0 0.00 0.00 0.00 54 1007.9
20260505115151 54 358 18.0 22.0 0.00 0.00 0.00 55 1007.9
20260505114648 54 358 14.0 19.0 0.00 0.00 0.00 55 1007.5
20260505114144 55 356 12.0 15.0 0.00 0.00 0.00 55 1007.6
20260505113641 55 350 14.0 17.0 0.00 0.00 0.00 55 1007.5
20260505113137 55 5 21.0 27.0 0.00 0.00 0.00 55 1007.5
20260505112633 55 337 16.0 19.0 0.00 0.00 0.00 56 1007.3
20260505112132 55 359 14.0 17.0 0.00 0.00 0.00 57 1007.4
20260505111626 55 5 18.0 22.0 0.00 0.00 0.00 57 1007.3
20260505111122 55 15 26.0 31.0 0.00 0.00 0.00 58 1007.0
20260505110618 55 9 21.0 24.0 0.00 0.00 0.00 58 1007.2
20260505110115 55 13 22.0 29.0 0.00 0.00 0.00 59 1007.3
20260505102051 59 339 23.0 29.0 0.00 0.00 0.00 60 1006.8
20260505101549 59 347 21.0 27.0 0.00 0.00 0.00 57 1006.6
20260505101045 59 322 15.0 22.0 0.00 0.00 0.00 55 1006.5
20260505100542 60 326 13.0 17.0 0.00 0.00 0.00 55 1006.3
20260505100039 60 340 19.0 22.0 0.00 0.00 0.00 53 1006.3
20260505095535 60 316 20.0 22.0 0.00 0.00 0.00 50 1006.2
20260505095032 60 359 17.0 26.0 0.00 0.00 0.00 47 1006.0
20260505094528 61 343 16.0 21.0 0.00 0.00 0.00 44 1005.8
20260505094024 62 304 17.0 24.0 0.00 0.00 0.00 39 1005.7
20260505093521 62 323 11.0 19.0 0.00 0.00 0.00 35 1005.4
20260505093019 62 313 12.0 17.0 0.00 0.00 0.00 32 1005.4
20260505092516 63 338 15.0 19.0 0.00 0.00 0.00 31 1005.2
20260505092014 64 292 13.0 19.0 0.00 0.00 0.00 30 1005.2
20260505091511 62 321 10.0 14.0 0.00 0.00 0.00 31 1005.3
20260505091009 61 311 6.0 7.0 0.00 0.00 0.00 32 1005.2
20260505090506 61 290 6.0 9.0 0.00 0.00 0.00 33 1004.8
20260505090004 61 288 9.0 10.0 0.00 0.00 0.00 33 1004.7
20260505085502 62 286 6.0 7.0 0.00 0.00 0.00 32 1004.7
20260505085000 63 281 11.0 12.0 0.00 0.00 0.00 32 1004.7
20260505084458 62 295 6.0 7.0 0.00 0.00 0.00 33 1004.5
20260505083955 63 280 4.0 5.0 0.00 0.00 0.00 32 1004.6
20260505083452 64 287 7.0 9.0 0.00 0.00 0.00 31 1004.6
20260505082949 64 280 5.0 7.0 0.00 0.00 0.00 30 1004.4
20260505082444 64 259 6.0 7.0 0.00 0.00 0.00 30 1004.3
20260505081942 64 251 6.0 10.0 0.00 0.00 0.00 30 1004.5
20260505081438 64 259 8.0 14.0 0.00 0.00 0.00 30 1004.5
20260505080935 65 261 4.0 5.0 0.00 0.00 0.00 30 1004.5
20260505080431 64 264 7.0 9.0 0.00 0.00 0.00 30 1004.6
20260505075926 63 269 4.0 5.0 0.00 0.00 0.00 31 1004.9
20260505075424 63 249 4.0 7.0 0.00 0.00 0.00 33 1004.8
20260505074921 64 268 2.0 2.0 0.00 0.00 0.00 32 1004.7
20260505074418 65 263 6.0 7.0 0.00 0.00 0.00 31 1004.7
20260505073915 66 282 7.0 7.0 0.00 0.00 0.00 31 1005.1
20260505073413 66 258 4.0 5.0 0.00 0.00 0.00 31 1004.7
20260505072910 66 270 4.0 5.0 0.00 0.00 0.00 30 1004.9
20260505072406 66 285 8.0 10.0 0.00 0.00 0.00 31 1005.1
20260505071902 67 272 4.0 5.0 0.00 0.00 0.00 29 1004.8
20260505071358 68 281 5.0 7.0 0.00 0.00 0.00 28 1004.9
20260505070857 68 250 6.0 9.0 0.00 0.00 0.00 28 1005.2
20260505070353 68 258 2.0 3.0 0.00 0.00 0.00 28 1005.1
20260505065848 68 252 3.0 3.0 0.00 0.00 0.00 28 1004.9
20260505065345 69 265 3.0 3.0 0.00 0.00 0.00 28 1004.9
20260505064842 69 272 4.0 7.0 0.00 0.00 0.00 27 1004.7
20260505064339 70 270 2.0 3.0 0.00 0.00 0.00 26 1004.9
20260505063838 71 266 6.0 9.0 0.00 0.00 0.00 26 1004.8
20260505063333 71 266 8.0 10.0 0.00 0.00 0.00 26 1004.7
20260505062830 71 290 9.0 10.0 0.00 0.00 0.00 26 1004.8
20260505062327 71 243 10.0 14.0 0.00 0.00 0.00 25 1004.6
20260505061824 71 258 7.0 10.0 0.00 0.00 0.00 25 1004.7
20260505061322 72 243 6.0 7.0 0.00 0.00 0.00 25 1004.6
20260505060820 72 286 7.0 14.0 0.00 0.00 0.00 25 1004.7
20260505060316 73 262 12.0 15.0 0.00 0.00 0.00 24 1004.9
20260505055812 73 250 10.0 12.0 0.00 0.00 0.00 24 1004.9
20260505055308 73 273 8.0 12.0 0.00 0.00 0.00 24 1005.2
20260505054806 73 246 9.0 14.0 0.00 0.00 0.00 24 1005.2
20260505054303 73 272 6.0 9.0 0.00 0.00 0.00 24 1005.1
20260505053801 74 240 7.0 9.0 0.00 0.00 0.00 24 1005.4
20260505053258 74 272 9.0 15.0 0.00 0.00 0.00 23 1004.8
20260505052755 74 260 10.0 12.0 0.00 0.00 0.00 23 1005.3
20260505052252 75 250 6.0 9.0 0.00 0.00 0.00 23 1004.9
20260505051748 74 288 10.0 14.0 0.00 0.00 0.00 23 1005.2
20260505051246 74 270 9.0 12.0 0.00 0.00 0.00 23 1005.2
20260505050744 73 238 7.0 12.0 0.00 0.00 0.00 24 1005.2
20260505050243 74 258 9.0 12.0 0.00 0.00 0.00 24 1005.2
20260505041712 74 224 9.0 14.0 0.00 0.00 0.00 23 1005.1
20260505041209 74 225 11.0 15.0 0.00 0.00 0.00 23 1005.1
20260505040706 74 223 9.0 12.0 0.00 0.00 0.00 23 1004.9
20260505040204 74 219 11.0 14.0 0.00 0.00 0.00 22 1004.7
20260505035700 74 260 9.0 17.0 0.00 0.00 0.00 21 1004.7
20260505035156 74 272 10.0 14.0 0.00 0.00 0.00 21 1005.1
20260505034653 75 271 13.0 19.0 0.00 0.00 0.00 20 1005.2
20260505034150 75 270 14.0 17.0 0.00 0.00 0.00 19 1004.8
20260505033646 74 253 7.0 17.0 0.00 0.00 0.00 20 1005.2
20260505033145 74 230 9.0 14.0 0.00 0.00 0.00 20 1004.9
20260505032643 74 258 4.0 9.0 0.00 0.00 0.00 19 1004.9
20260505032138 75 273 4.0 7.0 0.00 0.00 0.00 19 1004.9
20260505031636 75 262 7.0 12.0 0.00 0.00 0.00 19 1004.8
20260505031132 75 239 4.0 5.0 0.00 0.00 0.00 19 1004.8
20260505030629 76 254 5.0 7.0 0.00 0.00 0.00 19 1004.8
20260505030125 75 268 9.0 10.0 0.00 0.00 0.00 19 1004.6
20260505025621 75 255 1.0 3.0 0.00 0.00 0.00 19 1004.5
20260505025120 75 214 5.0 10.0 0.00 0.00 0.00 19 1004.9
20260505024617 75 259 4.0 9.0 0.00 0.00 0.00 19 1004.4
20260505024114 76 207 4.0 9.0 0.00 0.00 0.00 19 1004.5
20260505023611 76 233 8.0 14.0 0.00 0.00 0.00 18 1004.5
20260505023109 76 270 6.0 10.0 0.00 0.00 0.00 18 1004.4
20260505022606 76 229 4.0 9.0 0.00 0.00 0.00 19 1004.6
20260505022103 76 251 7.0 10.0 0.00 0.00 0.00 19 1004.6
20260505021600 76 247 4.0 7.0 0.00 0.00 0.00 19 1004.3
20260505021056 76 260 9.0 10.0 0.00 0.00 0.00 18 1004.5
20260505020556 77 252 4.0 7.0 0.00 0.00 0.00 18 1004.5
20260505020053 77 262 6.0 10.0 0.00 0.00 0.00 18 1004.4
20260505015550 78 253 3.0 5.0 0.00 0.00 0.00 18 1004.3
20260505015047 78 271 5.0 7.0 0.00 0.00 0.00 17 1004.4
20260505014544 79 257 9.0 15.0 0.00 0.00 0.00 17 1004.5
20260505014041 79 232 8.0 12.0 0.00 0.00 0.00 17 1004.2
20260505013538 79 235 8.0 12.0 0.00 0.00 0.00 17 1004.2
20260505013036 80 311 9.0 14.0 0.00 0.00 0.00 17 1004.1
20260505012534 80 254 8.0 12.0 0.00 0.00 0.00 17 1003.8
20260505012030 80 249 12.0 15.0 0.00 0.00 0.00 16 1004.2
20260505011526 80 250 10.0 12.0 0.00 0.00 0.00 16 1003.9
20260505011023 80 222 4.0 5.0 0.00 0.00 0.00 17 1004.2
20260505010518 81 234 5.0 9.0 0.00 0.00 0.00 17 1004.1
20260505010015 81 258 9.0 12.0 0.00 0.00 0.00 19 1004.2
20260505005512 80 264 1.0 3.0 0.00 0.00 0.00 24 1004.2
20260505005009 81 276 2.0 3.0 0.00 0.00 0.00 24 1004.2
20260505004506 81 255 8.0 10.0 0.00 0.00 0.00 24 1004.3
20260505004003 82 266 2.0 7.0 0.00 0.00 0.00 24 1004.5
20260505003500 82 254 3.0 5.0 0.00 0.00 0.00 23 1004.5
20260505002956 82 242 6.0 9.0 0.00 0.00 0.00 23 1004.2
20260505002452 82 268 6.0 9.0 0.00 0.00 0.00 23 1004.4
20260505001951 83 246 10.0 14.0 0.00 0.00 0.00 23 1004.5
20260505001448 83 269 0.0 2.0 0.00 0.00 0.00 22 1004.7
20260505000945 83 276 1.0 2.0 0.00 0.00 0.00 22 1004.6
20260505000443 83 234 3.0 10.0 0.00 0.00 0.00 22 1004.6
20260504235940 83 294 2.0 5.0 0.00 0.00 0.00 21 1004.8
20260504235437 83 260 10.0 19.0 0.00 0.00 0.00 21 1004.7
20260504234933 84 267 10.0 15.0 0.00 0.00 0.00 20 1004.8
20260504234431 84 259 13.0 15.0 0.00 0.00 0.00 19 1005.1
20260504233927 84 275 13.0 17.0 0.00 0.00 0.00 19 1005.1
20260504233423 84 246 10.0 15.0 0.00 0.00 0.00 19 1004.9
20260504232919 83 262 10.0 12.0 0.00 0.00 0.00 19 1004.9
20260504232417 84 252 12.0 14.0 0.00 0.00 0.00 20 1004.9
20260504231913 84 269 8.0 12.0 0.00 0.00 0.00 18 1005.1
20260504231404 84 270 15.0 17.0 0.00 0.00 0.00 18 1004.9
20260504230901 84 283 12.0 15.0 0.00 0.00 0.00 19 1004.8
20260504230358 85 274 13.0 17.0 0.00 0.00 0.00 19 1004.9
20260504225857 85 273 13.0 17.0 0.00 0.00 0.00 19 1004.8
20260504225353 85 261 14.0 21.0 0.00 0.00 0.00 20 1004.9
20260504224851 86 249 14.0 21.0 0.00 0.00 0.00 18 1004.8
20260504224347 86 264 11.0 17.0 0.00 0.00 0.00 18 1004.9
20260504223844 86 260 9.0 14.0 0.00 0.00 0.00 19 1005.1
20260504223339 86 219 16.0 22.0 0.00 0.00 0.00 19 1005.2
20260504222836 86 250 14.0 21.0 0.00 0.00 0.00 19 1005.1
20260504222333 85 239 9.0 12.0 0.00 0.00 0.00 20 1004.9
20260504221832 84 284 11.0 17.0 0.00 0.00 0.00 21 1004.9
20260504221328 84 286 10.0 14.0 0.00 0.00 0.00 20 1005.3
20260504220825 85 275 11.0 15.0 0.00 0.00 0.00 20 1005.3
20260504220322 85 247 12.0 17.0 0.00 0.00 0.00 19 1005.5
20260504215819 86 243 16.0 21.0 0.00 0.00 0.00 18 1005.4
20260504215315 85 265 17.0 22.0 0.00 0.00 0.00 19 1005.5
20260504214811 85 275 12.0 14.0 0.00 0.00 0.00 19 1005.6
20260504214308 86 331 8.0 12.0 0.00 0.00 0.00 19 1005.5
20260504213805 85 176 10.0 14.0 0.00 0.00 0.00 20 1005.7
20260504213301 85 289 0.0 2.0 0.00 0.00 0.00 22 1005.5
20260504212759 85 250 14.0 15.0 0.00 0.00 0.00 20 1006.0
20260504212254 85 262 17.0 22.0 0.00 0.00 0.00 19 1006.2
20260504211752 85 261 13.0 17.0 0.00 0.00 0.00 19 1006.4
20260504211248 85 277 14.0 24.0 0.00 0.00 0.00 19 1006.2
20260504210746 85 243 21.0 27.0 0.00 0.00 0.00 21 1005.9
20260504210243 85 273 11.0 19.0 0.00 0.00 0.00 21 1006.0
20260504205740 86 286 8.0 19.0 0.00 0.00 0.00 21 1006.2
20260504205238 86 295 11.0 19.0 0.00 0.00 0.00 20 1006.2
20260504204736 86 276 14.0 17.0 0.00 0.00 0.00 20 1006.5
20260504204234 85 235 14.0 24.0 0.00 0.00 0.00 21 1006.5
20260504203733 85 244 13.0 21.0 0.00 0.00 0.00 20 1006.5
20260504203230 85 273 12.0 19.0 0.00 0.00 0.00 20 1006.4
20260504202729 84 296 14.0 21.0 0.00 0.00 0.00 21 1006.5
20260504202227 85 269 13.0 17.0 0.00 0.00 0.00 22 1006.6
20260504201724 84 298 12.0 19.0 0.00 0.00 0.00 22 1006.6
20260504201221 84 280 14.0 17.0 0.00 0.00 0.00 21 1006.6
20260504200719 84 332 7.0 10.0 0.00 0.00 0.00 21 1007.0
20260504200214 84 286 12.0 14.0 0.00 0.00 0.00 22 1006.7
20260504195711 84 294 18.0 21.0 0.00 0.00 0.00 21 1006.9
20260504195207 84 297 12.0 15.0 0.00 0.00 0.00 21 1007.0
20260504194704 84 277 15.0 19.0 0.00 0.00 0.00 20 1006.9
20260504194200 84 269 18.0 22.0 0.00 0.00 0.00 20 1007.4
20260504193657 84 306 14.0 17.0 0.00 0.00 0.00 20 1007.2
20260504193155 84 270 11.0 15.0 0.00 0.00 0.00 21 1007.5
20260504192652 84 303 14.0 19.0 0.00 0.00 0.00 21 1007.4
20260504192150 84 264 13.0 15.0 0.00 0.00 0.00 21 1007.5
20260504191648 84 266 7.0 10.0 0.00 0.00 0.00 21 1007.4
20260504191144 84 269 17.0 19.0 0.00 0.00 0.00 21 1007.4
20260504190641 84 269 13.0 17.0 0.00 0.00 0.00 21 1007.8
20260504190137 84 307 14.0 21.0 0.00 0.00 0.00 21 1007.8
20260504185634 84 280 14.0 19.0 0.00 0.00 0.00 21 1007.8
20260504185130 84 272 14.0 19.0 0.00 0.00 0.00 22 1007.7
20260504184626 84 304 10.0 10.0 0.00 0.00 0.00 21 1007.6
20260504184121 85 277 15.0 17.0 0.00 0.00 0.00 22 1007.9
20260504183619 84 283 10.0 12.0 0.00 0.00 0.00 21 1007.9
20260504183116 84 291 15.0 21.0 0.00 0.00 0.00 21 1007.9
20260504182614 83 279 7.0 15.0 0.00 0.00 0.00 23 1008.0
20260504182111 83 273 27.0 31.0 0.00 0.00 0.00 21 1008.2
20260504181609 83 302 13.0 19.0 0.00 0.00 0.00 23 1008.0
20260504181106 82 273 12.0 19.0 0.00 0.00 0.00 24 1008.3
20260504180605 83 276 19.0 21.0 0.00 0.00 0.00 23 1008.4
20260504180104 83 295 13.0 17.0 0.00 0.00 0.00 23 1008.3
20260504175600 83 303 16.0 22.0 0.00 0.00 0.00 24 1008.5
20260504175057 82 325 17.0 24.0 0.00 0.00 0.00 25 1008.4
20260504174555 83 335 16.0 19.0 0.00 0.00 0.00 24 1008.4
20260504174051 82 296 17.0 26.0 0.00 0.00 0.00 25 1008.7
20260504173548 82 315 10.0 14.0 0.00 0.00 0.00 24 1008.6
20260504173046 82 277 16.0 19.0 0.00 0.00 0.00 24 1008.7
20260504172542 82 312 15.0 21.0 0.00 0.00 0.00 24 1008.8
20260504172038 82 282 12.0 14.0 0.00 0.00 0.00 25 1009.3
20260504171535 83 282 14.0 22.0 0.00 0.00 0.00 24 1009.0
20260504171032 82 277 15.0 21.0 0.00 0.00 0.00 25 1009.2
20260504170528 82 279 10.0 14.0 0.00 0.00 0.00 26 1009.3
20260504150911 71 236 23.0 29.0 0.00 0.00 0.00 38 1009.6
20260504150403 70 279 16.0 26.0 0.00 0.00 0.00 39 1009.8
20260504141333 66 288 11.0 15.0 0.00 0.00 0.00 50 1009.5
20260504140829 66 276 7.0 10.0 0.00 0.00 0.00 51 1009.4
20260504140325 65 276 9.0 14.0 0.00 0.00 0.00 52 1009.6
20260504130754 59 255 6.0 9.0 0.00 0.00 0.00 61 1009.5
20260504130250 59 256 7.0 10.0 0.00 0.00 0.00 62 1009.4